Location: Christchurch
(43.5330°S, 172.6330°E)
Time: 16:38:40
(UTC+13:00)

Resurs 01 Rocket - Pass Details

Date: 24 January 2019
Orbit: 635 x 643 km, 98.1° (Epoch: 19 February)

Event Time Altitude Azimuth Distance (km) Brightness Sun altitude
Rises 21:35:33 0° 152° (SSE) 2,980 5.1 -5.7°
Reaches altitude 10° 21:38:18 10° 135° (SE) 2,059 4.1 -6.1°
Maximum altitude 21:41:38 20° 87° (E) 1,484 3.0 -6.6°
Drops below altitude 10° 21:44:56 10° 39° (NE) 2,035 3.6 -7.1°
Enters shadow 21:45:43 - 33° (NNE) 2,280 3.9 -7.3°
